Location: Riverton
(43.0250°N, 108.3790°W)
Time: 20:59:16
(UTC-06:00)

Amateur Radio Satellites - All Passes

Search period start: 29 May 2016 20:29
Search period end: 30 May 2016 20:29
Location: Riverton, 43.0250°N, 108.3790°W

Satellite Date Start Highest point End Downlink Frequencies (MHz)
Time Altitude Azimuth
ZACube-1 29 May 20:30:03 20:32:05 13° 63° (ENE) 20:34:07 437.345
BEESAT 2 29 May 20:33:39 20:37:39 75° 55° (NE) 20:41:38 435.950
O/OREOS (USA 219) 29 May 20:42:30 20:45:31 18° 260° (W) 20:48:31 437.305
PCSat 29 May 20:43:29 20:46:07 14° 257° (WSW) 20:48:44 145.827
CUBEBUG 2 29 May 20:43:47 20:47:50 39° 71° (ENE) 20:51:46 437.445
AUBIESAT-1 29 May 20:59:40 21:03:02 25° 258° (WSW) 21:06:13 437.475
HO-68 29 May 21:00:14 21:07:12 56° 259° (WSW) 21:14:14 435.675
SEEDS 29 May 21:02:01 21:06:08 58° 260° (W) 21:10:17 437.485
PHONESAT 2.4 29 May 21:02:40 21:04:07 13° 151° (SSE) 21:05:33 2401.200-2431.200
BEESAT 3 29 May 21:04:08 21:07:36 29° 245° (WSW) 21:11:01 437.485
CANX-2 29 May 21:04:35 21:08:26 35° 263° (W) 21:12:20 2200.000
FUNcube-1 29 May 21:04:58 21:08:35 28° 69° (ENE) 21:12:09 145.935
UWE-3 29 May 21:07:09 21:11:16 48° 73° (ENE) 21:15:19 435.000/436.395/437.385
RS-15 29 May 21:07:43 21:17:37 30° 341° (NNW) 21:27:55 29.354- 29.394
M-CUBED/EXP-1 PRIME 29 May 21:09:16 21:11:59 17° 260° (W) 21:14:35 437.505
AIST 2 29 May 21:25:43 21:28:58 21° 43° (NE) 21:32:12 435.215
CUTE 1.7 + AOD 2 29 May 21:32:12 21:35:23 21° 267° (W) 21:38:36 437.475
ISS 29 May 21:35:47 21:39:04 85° 140° (SE) 21:42:20 145.825
PRISM 29 May 21:43:11 21:47:23 77° 103° (ESE) 21:51:32 437.425
AAUSAT CUBESAT 2 29 May 21:44:07 21:47:53 34° 263° (W) 21:51:42 437.432
COMPASS 1 29 May 21:44:18 21:47:52 28° 265° (W) 21:51:28 437.405
Oscar 11 29 May 21:44:27 21:48:45 86° 261° (W) 21:53:05 145.826/435.025
CINEMA 3 29 May 21:49:07 21:51:50 15° 269° (W) 21:54:31 145.822/145.860
STRAND 1 29 May 21:49:53 21:53:56 24° 296° (WNW) 21:57:59 437.568
HUMSAT D 29 May 21:51:24 21:54:41 24° 68° (ENE) 21:57:59 437.325/437.525
DELFI C3 29 May 21:53:32 21:57:24 55° 73° (ENE) 22:01:19 145.870
CUSAT 1 29 May 21:54:49 22:01:26 30° 64° (ENE) 22:07:06 437.405
AIST 1 29 May 21:58:56 22:03:14 54° 281° (W) 22:07:35
ZACube-1 29 May 22:03:46 22:07:55 59° 259° (W) 22:12:03 437.345
DANDE 29 May 22:10:25 22:17:04 25° 61° (ENE) 22:23:15 436.750
BEESAT 2 29 May 22:14:25 22:14:53 10° 252° (WSW) 22:15:20 435.950
GONETS M04 29 May 22:19:31 22:28:18 78° 94° (E) 22:37:03
CUBEBUG 2 29 May 22:21:31 22:24:36 19° 267° (W) 22:27:39 437.445
Cosmos 2499 29 May 22:29:13 22:36:14 53° 90° (E) 22:43:48 435.465 / 435.565
ANTELSAT 29 May 22:33:28 22:35:57 15° 92° (E) 22:38:26 437.575/2403.000
PHONESAT 2.4 29 May 22:37:24 22:40:21 37° 166° (SSE) 22:43:17 2401.200-2431.200
FUNcube-1 29 May 22:41:21 22:44:48 24° 265° (W) 22:48:14 145.935
UWE-3 29 May 22:45:32 22:47:59 15° 268° (W) 22:50:25 435.000/436.395/437.385
UKube-1 29 May 22:55:11 22:56:56 12° 60° (ENE) 22:58:40 .
AISAT 29 May 22:59:15 23:02:33 21° 65° (ENE) 23:05:52 437.250
AIST 2 29 May 23:03:41 23:07:40 46° 242° (WSW) 23:11:38 435.215
ISS 29 May 23:13:06 23:15:49 23° 345° (NNW) 23:18:33 145.825
PRISM 29 May 23:21:00 23:22:04 11° 300° (WNW) 23:23:07 437.425
RS-15 29 May 23:25:19 23:35:21 28° 16° (NNE) 23:45:32 29.354- 29.394
HUMSAT D 29 May 23:26:41 23:30:13 28° 264° (W) 23:33:46 437.325/437.525
UNISAT 6 29 May 23:27:32 23:31:48 57° 101° (E) 23:36:07 437.425
50 SAT 29 May 23:28:38 23:31:59 36° 71° (ENE) 23:35:23 437.505
DELFI C3 29 May 23:31:07 23:32:37 12° 270° (W) 23:34:07 145.870
TIGRISAT 29 May 23:34:12 23:38:29 63° 102° (ESE) 23:42:48 435.000
CUSAT 1 29 May 23:36:38 23:44:03 56° 268° (W) 23:50:07 437.405
DUCHIFAT 1 29 May 23:38:04 23:39:25 11° 90° (E) 23:40:46 145.980
DX 1 29 May 23:43:48 23:48:00 46° 71° (ENE) 23:52:12 434.975-435.025
CUBEBUG 1 29 May 23:44:05 23:48:26 55° 73° (ENE) 23:52:47 437.445
ESTCUBE 1 29 May 23:46:28 23:50:58 85° 78° (ENE) 23:55:33 437.505/2401.250
DANDE 29 May 23:52:28 00:00:57 81° 263° (W) 00:08:22 436.750
VELOX 1 29 May 23:57:44 00:02:12 77° 75° (ENE) 00:06:41 145.980
SPROUT 29 May 23:59:56 00:03:44 32° 69° (ENE) 00:07:32 437.525
ANTELSAT 30 May 00:08:45 00:12:57 51° 287° (WNW) 00:17:12 437.575/2403.000
PHONESAT 2.4 30 May 00:13:48 00:16:52 52° 183° (S) 00:19:56 2401.200-2431.200
TISAT 1 30 May 00:16:19 00:18:35 14° 63° (ENE) 00:20:52 437.305
POPSAT HIP 1 30 May 00:17:10 00:21:00 34° 97° (E) 00:24:50 437.405
QB50P1 30 May 00:17:17 00:21:09 35° 97° (E) 00:25:00 145.935-145.965
GONETS M04 30 May 00:19:18 00:26:06 24° 296° (WNW) 00:32:55
QB50P2 30 May 00:20:27 00:24:26 40° 98° (E) 00:28:23 145.880/145.840
POLYITAN 1 30 May 00:22:55 00:26:54 41° 99° (E) 00:30:52 437.675
Cosmos 2499 30 May 00:23:24 00:29:45 31° 292° (WNW) 00:36:34 435.465 / 435.565
UKube-1 30 May 00:28:04 00:32:23 73° 256° (WSW) 00:36:45 .
SO-50 30 May 00:34:01 00:38:55 77° 121° (ESE) 00:43:50 436.795
NANOSAT C BR1 30 May 00:34:04 00:38:10 52° 100° (E) 00:42:15 145.865
AISAT 30 May 00:34:31 00:38:45 41° 261° (W) 00:43:01 437.250
ISS 30 May 00:50:42 00:53:04 18° 5° (N) 00:55:26 145.825
50 SAT 30 May 01:03:48 01:05:53 15° 268° (W) 01:07:59 437.505
UNISAT 6 30 May 01:05:41 01:08:05 15° 297° (WNW) 01:10:30 437.425
BEESAT 30 May 01:06:05 01:07:28 11° 58° (ENE) 01:08:53 436.000
DUCHIFAT 1 30 May 01:11:24 01:15:32 63° 286° (WNW) 01:19:39 145.980
TIGRISAT 30 May 01:12:36 01:14:41 13° 298° (WNW) 01:16:46 435.000
JAS-2 30 May 01:12:57 01:19:18 31° 91° (E) 01:25:01 435.910
BUGSAT 1 30 May 01:18:38 01:22:41 73° 102° (ESE) 01:26:40 437.445
DX 1 30 May 01:21:31 01:24:25 17° 267° (W) 01:27:19 434.975-435.025
CUBEBUG 1 30 May 01:22:36 01:25:03 14° 269° (W) 01:27:30 437.445
SPROUT 30 May 01:36:14 01:39:42 24° 266° (W) 01:43:11 437.525
DANDE 30 May 01:37:26 01:42:23 18° 283° (WNW) 01:47:02 436.750
VELOX 1 30 May 01:38:21 01:39:12 10° 271° (W) 01:40:02 145.980
RS-15 30 May 01:39:03 01:51:12 60° 47° (NE) 02:03:19 29.354- 29.394
TISAT 1 30 May 01:49:38 01:53:47 56° 259° (W) 01:57:57 437.305
PHONESAT 2.4 30 May 01:50:36 01:53:20 27° 199° (SSW) 01:56:02 2401.200-2431.200
POPSAT HIP 1 30 May 01:53:24 01:56:36 21° 294° (WNW) 01:59:47 437.405
QB50P1 30 May 01:53:34 01:56:43 21° 294° (WNW) 01:59:53 145.935-145.965
QB50P2 30 May 01:57:00 01:59:57 19° 295° (WNW) 02:02:54 145.880/145.840
POLYITAN 1 30 May 01:59:31 02:02:25 18° 295° (WNW) 02:05:19 437.675
SWISSCUBE 30 May 02:10:33 02:15:07 50° 71° (ENE) 02:19:44 437.505
NANOSAT C BR1 30 May 02:11:05 02:13:29 15° 297° (WNW) 02:15:53 145.865
SO-50 30 May 02:16:22 02:19:58 20° 321° (NW) 02:23:33 436.795
ITUPSAT 1 30 May 02:18:08 02:22:45 52° 71° (ENE) 02:27:24 437.325
Oscar 19 30 May 02:25:48 02:30:50 50° 100° (E) 02:35:48 437.125/150
ISS 30 May 02:27:03 02:30:09 38° 25° (NNE) 02:33:14 145.825
YUBILEINY 30 May 02:38:11 02:46:02 35° 69° (ENE) 02:53:51 435.215
BEESAT 30 May 02:39:45 02:44:30 87° 78° (ENE) 02:49:18 436.000
KKS-1 30 May 02:53:59 02:56:48 17° 63° (ENE) 02:59:35 437.445
BUGSAT 1 30 May 02:56:39 02:57:28 11° 299° (WNW) 02:58:16 437.445
JAS-2 30 May 02:57:29 03:04:39 53° 292° (WNW) 03:11:03 435.910
Gurwin Techsat 1B 30 May 03:09:52 03:15:06 55° 100° (E) 03:20:18 435.225
ITAMSAT 1 30 May 03:13:48 03:17:57 23° 94° (E) 03:22:05 435.822/435.867
STARS 30 May 03:22:19 03:25:06 17° 63° (ENE) 03:27:53 437.465
MOZHAYETS 4 30 May 03:27:48 03:31:34 26° 67° (ENE) 03:35:22
Cosmos 2491 30 May 03:35:38 03:43:28 38° 85° (E) 03:51:17 435.465 / 435.565
SWISSCUBE 30 May 03:49:56 03:53:11 18° 268° (W) 03:56:28 437.505
RS-15 30 May 03:52:02 04:03:31 49° 250° (WSW) 04:14:57 29.354- 29.394
Cosmos 2504 30 May 03:52:23 03:59:41 31° 68° (ENE) 04:07:12 435.465 / 435.565
ITUPSAT 1 30 May 03:57:45 04:00:54 17° 268° (W) 04:04:03 437.325
ISS 30 May 04:03:37 04:06:33 31° 222° (SW) 04:09:28 145.825
Oscar 19 30 May 04:05:54 04:09:48 22° 297° (WNW) 04:13:39 437.125/150
AO-7 30 May 04:24:26 04:32:14 41° 99° (E) 04:39:59 29.400- 29.500
KKS-1 30 May 04:28:34 04:32:56 54° 259° (W) 04:37:20 437.445
YUBILEINY 30 May 04:34:45 04:43:10 55° 270° (W) 04:51:38 435.215
JAS-2 30 May 04:45:44 04:47:50 11° 314° (NW) 04:49:55 435.910
Gurwin Techsat 1B 30 May 04:50:43 04:54:38 21° 298° (WNW) 04:58:34 435.225
ITAMSAT 1 30 May 04:52:38 04:57:37 45° 290° (WNW) 05:02:34 435.822/435.867
STARS 30 May 04:56:46 05:01:04 51° 260° (W) 05:05:22 437.465
CUBESAT XI-V 30 May 05:00:22 05:04:21 29° 67° (ENE) 05:08:23 437.345
MOZHAYETS 4 30 May 05:04:32 05:08:37 32° 264° (W) 05:12:45
Cosmos 2491 30 May 05:31:31 05:40:01 51° 285° (WNW) 05:48:34 435.465 / 435.565
HORYU 2 30 May 05:45:08 05:49:25 45° 100° (E) 05:53:41 437.375
Cosmos 2504 30 May 05:45:13 05:53:34 64° 268° (W) 06:02:16 435.465 / 435.565
NOAA 15 30 May 05:50:55 05:51:54 10° 87° (E) 05:52:53 137.62
STRAND 1 30 May 05:53:01 05:53:36 10° 55° (NE) 05:54:10 437.568
AO-85 30 May 06:00:00 06:05:25 69° 120° (ESE) 06:10:44 145.980
Cubesat XI-IV 30 May 06:06:35 06:06:50 10° 87° (E) 06:07:05 437.490
AO-7 30 May 06:17:10 06:25:06 49° 298° (WNW) 06:33:00 29.400- 29.500
NOAA 18 30 May 06:24:49 06:28:45 20° 92° (E) 06:32:42 137.9125
CUBESAT XI-V 30 May 06:37:30 06:41:39 31° 264° (W) 06:45:51 437.345
CUTE-I 30 May 06:48:16 06:52:48 27° 95° (E) 06:57:20 437.470
LilacSat-2 30 May 06:59:34 07:02:52 28° 96° (E) 07:06:11 437.200
BRITE-PL 30 May 07:10:17 07:15:12 51° 98° (E) 07:19:43 437.365/2234.400
GOMX 1 30 May 07:20:36 07:24:34 28° 94° (E) 07:28:19 467.674
HORYU 2 30 May 07:22:33 07:25:38 19° 296° (WNW) 07:28:44 437.375
SO-50 30 May 07:25:28 07:28:25 16° 35° (NE) 07:31:19 436.795
STRAND 1 30 May 07:26:46 07:31:50 72° 73° (ENE) 07:36:57 437.568
NOAA 15 30 May 07:27:06 07:32:26 86° 104° (ESE) 07:37:43 137.62
AO-85 30 May 07:42:01 07:46:23 24° 319° (NW) 07:50:38 145.980
Cubesat XI-IV 30 May 07:42:18 07:47:42 82° 104° (ESE) 07:53:04 437.490
Cosmos 2504 30 May 07:42:36 07:45:18 12° 287° (WNW) 07:48:02 435.465 / 435.565
DOVE 4 30 May 07:54:48 07:58:34 29° 95° (E) 08:02:11 437.250
NOAA 18 30 May 08:04:24 08:09:47 58° 289° (WNW) 08:15:09 137.9125
AIST 1 30 May 08:05:04 08:09:09 38° 76° (ENE) 08:13:10
CINEMA 3 30 May 08:06:23 08:07:05 10° 89° (E) 08:07:46 145.822/145.860
AO-7 30 May 08:12:53 08:15:51 12° 320° (NW) 08:18:51 29.400- 29.500
Cosmos 2499 30 May 08:18:39 08:25:13 23° 64° (ENE) 08:31:54 435.465 / 435.565
HO-68 30 May 08:27:11 08:33:12 28° 94° (E) 08:39:11 435.675
CUTE-I 30 May 08:27:58 08:32:57 41° 292° (WNW) 08:37:57 437.470
GONETS M04 30 May 08:28:56 08:37:02 40° 71° (ENE) 08:45:04
PRISM 30 May 08:33:09 08:37:15 61° 73° (ENE) 08:41:23 437.425
LilacSat-2 30 May 08:34:11 08:37:02 21° 292° (WNW) 08:39:54 437.200
AUBIESAT-1 30 May 08:38:12 08:39:41 12° 98° (E) 08:41:10 437.475
SEEDS 30 May 08:45:30 08:48:47 21° 93° (E) 08:52:03 437.485
M-CUBED/EXP-1 PRIME 30 May 08:46:43 08:49:10 20° 101° (E) 08:51:38 437.505
CANX-2 30 May 08:48:19 08:52:16 35° 97° (E) 08:56:13 2200.000
BRITE-PL 30 May 08:49:39 08:53:13 20° 298° (WNW) 08:56:37 437.365/2234.400
GOMX 1 30 May 08:58:40 09:02:37 28° 293° (WNW) 09:06:20 467.674
SO-50 30 May 09:04:54 09:09:39 86° 54° (NE) 09:14:13 436.795
NOAA 15 30 May 09:08:44 09:11:29 14° 302° (WNW) 09:14:13 137.62
STRAND 1 30 May 09:08:57 09:11:33 14° 271° (W) 09:14:10 437.568
CUTE 1.7 + AOD 2 30 May 09:14:47 09:19:03 62° 101° (E) 09:23:18 437.475
O/OREOS (USA 219) 30 May 09:15:12 09:19:32 44° 107° (ESE) 09:23:52 437.305
Cubesat XI-IV 30 May 09:24:05 09:27:04 15° 302° (WNW) 09:30:04 437.490
AAUSAT CUBESAT 2 30 May 09:25:11 09:29:01 32° 97° (E) 09:32:47 437.432
COMPASS 1 30 May 09:25:31 09:29:32 41° 98° (E) 09:33:31 437.405
Oscar 11 30 May 09:31:50 09:34:34 16° 91° (E) 09:37:19 145.826/435.025
DOVE 4 30 May 09:32:38 09:36:11 25° 293° (WNW) 09:39:37 437.250
ANTELSAT 30 May 09:33:42 09:36:14 16° 64° (ENE) 09:38:47 437.575/2403.000
PCSat 30 May 09:40:17 09:45:37 65° 117° (ESE) 09:51:01 145.827
CINEMA 3 30 May 09:40:34 09:44:42 65° 284° (WNW) 09:48:49 145.822/145.860
AIST 1 30 May 09:43:27 09:46:25 18° 274° (W) 09:49:22
ZACube-1 30 May 09:51:21 09:54:44 23° 94° (E) 09:58:09 437.345
CUBEBUG 2 30 May 10:09:34 10:13:46 80° 103° (ESE) 10:18:01 437.445
Cosmos 2499 30 May 10:10:39 10:19:21 84° 265° (W) 10:28:15 435.465 / 435.565
AUBIESAT-1 30 May 10:11:20 10:14:24 35° 293° (WNW) 10:17:27 437.475
PRISM 30 May 10:11:26 10:12:57 12° 270° (W) 10:14:28 437.425
HO-68 30 May 10:14:16 10:21:17 58° 292° (WNW) 10:28:17 435.675
SEEDS 30 May 10:20:42 10:24:34 34° 290° (WNW) 10:28:25 437.485
M-CUBED/EXP-1 PRIME 30 May 10:21:09 10:23:44 22° 297° (WNW) 10:26:19 437.505
CANX-2 30 May 10:24:38 10:27:56 22° 293° (WNW) 10:31:13 2200.000
GONETS M04 30 May 10:25:48 10:33:55 46° 272° (W) 10:42:03
UNISAT 6 30 May 10:27:10 10:31:24 55° 73° (ENE) 10:35:36 437.425
FUNcube-1 30 May 10:27:12 10:31:20 53° 100° (E) 10:35:31 145.935
UWE-3 30 May 10:31:42 10:35:54 84° 285° (WNW) 10:40:11 435.000/436.395/437.385
DUCHIFAT 1 30 May 10:31:51 10:32:51 11° 61° (ENE) 10:33:52 145.980
TIGRISAT 30 May 10:33:37 10:37:53 61° 74° (ENE) 10:42:07 435.000
SO-50 30 May 10:48:03 10:49:21 11° 254° (WSW) 10:50:38 436.795
CUTE 1.7 + AOD 2 30 May 10:52:15 10:54:23 14° 297° (WNW) 10:56:31 437.475
BEESAT 3 30 May 10:55:14 10:58:47 33° 116° (ESE) 11:02:21 437.485
O/OREOS (USA 219) 30 May 10:55:41 10:59:10 21° 305° (NW) 11:02:37 437.305
CUSAT 1 30 May 10:57:00 11:02:37 28° 83° (E) 11:08:58 437.405
AAUSAT CUBESAT 2 30 May 11:01:01 11:04:19 22° 293° (WNW) 11:07:35 437.432
COMPASS 1 30 May 11:01:51 11:04:47 19° 295° (WNW) 11:07:43 437.405
DELFI C3 30 May 11:04:51 11:08:55 82° 103° (ESE) 11:12:57 145.870
Oscar 11 30 May 11:06:47 11:10:58 47° 288° (WNW) 11:15:08 145.826/435.025
ANTELSAT 30 May 11:08:20 11:12:34 52° 260° (W) 11:16:46 437.575/2403.000
HUMSAT D 30 May 11:08:24 11:12:19 39° 98° (E) 11:16:16 437.325/437.525
POPSAT HIP 1 30 May 11:10:34 11:14:14 30° 69° (ENE) 11:17:55 437.405
QB50P1 30 May 11:10:37 11:14:20 30° 69° (ENE) 11:18:02 145.935-145.965
QB50P2 30 May 11:13:53 11:17:43 34° 70° (ENE) 11:21:34 145.880/145.840
POLYITAN 1 30 May 11:16:22 11:20:12 35° 70° (ENE) 11:24:03 437.675
DANDE 30 May 11:20:39 11:24:47 19° 78° (ENE) 11:29:33 436.750
PCSat 30 May 11:25:13 11:29:29 23° 316° (NW) 11:33:48 145.827
JAS-2 30 May 11:26:21 11:31:27 20° 54° (NE) 11:36:40 435.910
NANOSAT C BR1 30 May 11:26:54 11:30:54 43° 71° (ENE) 11:34:53 145.865
ZACube-1 30 May 11:27:20 11:31:04 31° 290° (WNW) 11:34:50 437.345
ESTCUBE 1 30 May 11:39:10 11:42:07 17° 92° (E) 11:45:03 437.505/2401.250
VELOX 1 30 May 11:48:41 11:50:51 13° 90° (E) 11:52:59 145.980
CUBEBUG 2 30 May 11:49:25 11:49:47 10° 299° (WNW) 11:50:09 437.445
BEESAT 2 30 May 12:03:43 12:07:41 78° 304° (NW) 12:11:41 435.950
DUCHIFAT 1 30 May 12:03:44 12:07:56 78° 259° (WSW) 12:12:09 145.980
HO-68 30 May 12:04:49 12:07:32 12° 312° (NW) 12:10:16 435.675
FUNcube-1 30 May 12:04:49 12:07:10 15° 296° (WNW) 12:09:33 145.935
Cosmos 2499 30 May 12:05:54 12:11:12 18° 283° (WNW) 12:16:37 435.465 / 435.565
UNISAT 6 30 May 12:06:17 12:08:28 14° 269° (W) 12:10:38 437.425
Oscar 19 30 May 12:08:18 12:10:05 12° 57° (ENE) 12:11:52 437.125/150
BUGSAT 1 30 May 12:08:49 12:12:56 56° 73° (ENE) 12:17:00 437.445
TIGRISAT 30 May 12:13:14 12:14:58 12° 270° (W) 12:16:43 435.000
UKube-1 30 May 12:15:18 12:18:09 17° 92° (E) 12:21:00 .
AISAT 30 May 12:23:44 12:27:45 33° 97° (E) 12:31:41 437.250
50 SAT 30 May 12:30:23 12:33:56 41° 99° (E) 12:37:28 437.505
BEESAT 3 30 May 12:33:13 12:36:31 25° 314° (NW) 12:39:52 437.485
CUSAT 1 30 May 12:37:26 12:44:05 61° 285° (WNW) 12:51:57 437.405
HUMSAT D 30 May 12:44:43 12:47:41 19° 294° (WNW) 12:50:41 437.325/437.525
POPSAT HIP 1 30 May 12:46:32 12:50:01 24° 265° (W) 12:53:30 437.405
QB50P1 30 May 12:46:39 12:50:06 24° 265° (W) 12:53:34 145.935-145.965
QB50P2 30 May 12:50:22 12:53:36 21° 266° (W) 12:56:51 145.880/145.840
AO-85 30 May 12:52:27 12:54:59 14° 32° (NNE) 12:57:26 145.980
POLYITAN 1 30 May 12:52:55 12:56:06 21° 266° (W) 12:59:18 437.675
Gurwin Techsat 1B 30 May 12:55:17 12:57:57 14° 58° (ENE) 13:00:38 435.225
DANDE 30 May 13:00:32 13:06:24 77° 282° (WNW) 13:14:02 436.750
AIST 2 30 May 13:02:10 13:05:41 27° 114° (ESE) 13:09:12 435.215
NANOSAT C BR1 30 May 13:04:04 13:06:49 17° 268° (W) 13:09:36 145.865
DX 1 30 May 13:06:52 13:11:15 77° 103° (ESE) 13:15:35 434.975-435.025
JAS-2 30 May 13:07:45 13:15:15 81° 74° (ENE) 13:23:11 435.910
CUBEBUG 1 30 May 13:07:50 13:12:14 82° 286° (WNW) 13:16:34 437.445
ESTCUBE 1 30 May 13:14:48 13:19:12 50° 288° (WNW) 13:23:35 437.505/2401.250
SPROUT 30 May 13:20:15 13:24:26 53° 100° (E) 13:28:34 437.525
VELOX 1 30 May 13:23:20 13:27:43 60° 286° (WNW) 13:32:02 145.980
TISAT 1 30 May 13:33:19 13:36:24 20° 94° (E) 13:39:28 437.305
AO-7 30 May 13:36:56 13:41:10 15° 44° (NE) 13:45:25 29.400- 29.500
Oscar 19 30 May 13:43:21 13:48:33 81° 74° (ENE) 13:53:47 437.125/150
BEESAT 2 30 May 13:44:40 13:46:13 12° 324° (NW) 13:47:46 435.950
Cosmos 2491 30 May 13:44:58 13:50:53 19° 60° (ENE) 13:56:45 435.465 / 435.565
BUGSAT 1 30 May 13:46:43 13:48:39 13° 269° (W) 13:50:33 437.445
UKube-1 30 May 13:50:18 13:54:26 44° 289° (WNW) 13:58:31 .
AISAT 30 May 14:00:30 14:04:04 24° 294° (WNW) 14:07:36 437.250
50 SAT 30 May 14:05:12 14:07:19 15° 295° (WNW) 14:09:26 437.505
SWISSCUBE 30 May 14:11:56 14:13:38 12° 89° (E) 14:15:19 437.505
ITUPSAT 1 30 May 14:19:33 14:21:36 12° 89° (E) 14:23:39 437.325
CUSAT 1 30 May 14:24:37 14:28:06 14° 308° (NW) 14:31:45 437.405
AO-85 30 May 14:31:43 14:36:27 71° 55° (NE) 14:40:43 145.980
Gurwin Techsat 1B 30 May 14:31:50 14:37:09 87° 256° (WSW) 14:42:31 435.225
ITAMSAT 1 30 May 14:32:28 14:37:14 39° 68° (ENE) 14:42:03 435.822/435.867
BEESAT 30 May 14:39:40 14:43:16 21° 93° (E) 14:46:51 436.000
AIST 2 30 May 14:40:21 14:44:04 32° 312° (NW) 14:47:49 435.215
DX 1 30 May 14:45:17 14:46:49 12° 300° (WNW) 14:48:21 434.975-435.025
DANDE 30 May 14:47:08 14:50:57 16° 306° (NW) 14:55:13 436.750
JAS-2 30 May 14:55:33 15:01:03 22° 273° (W) 15:06:48 435.910
SPROUT 30 May 14:57:29 14:59:57 15° 297° (WNW) 15:02:25 437.525
TISAT 1 30 May 15:08:21 15:12:10 35° 290° (WNW) 15:15:58 437.305
AO-7 30 May 15:24:11 15:32:15 60° 65° (ENE) 15:40:24 29.400- 29.500
Oscar 19 30 May 15:26:13 15:28:28 13° 271° (W) 15:30:45 437.125/150
Cosmos 2491 30 May 15:40:19 15:49:08 86° 82° (E) 15:57:51 435.465 / 435.565
YUBILEINY 30 May 15:40:42 15:48:25 38° 85° (E) 15:56:10 435.215
SWISSCUBE 30 May 15:47:10 15:51:59 78° 285° (WNW) 15:56:46 437.505
ITUPSAT 1 30 May 15:55:09 15:59:58 74° 286° (WNW) 16:04:45 437.325
RS-15 30 May 16:05:51 16:14:58 30° 102° (ESE) 16:24:25 29.354- 29.394
ITAMSAT 1 30 May 16:12:29 16:16:48 27° 265° (W) 16:21:10 435.822/435.867
AO-85 30 May 16:14:14 16:16:09 13° 254° (WSW) 16:18:00 145.980
Gurwin Techsat 1B 30 May 16:16:36 16:17:51 11° 273° (W) 16:19:06 435.225
BEESAT 30 May 16:16:42 16:21:15 44° 290° (WNW) 16:25:47 436.000
KKS-1 30 May 16:18:53 16:22:36 26° 95° (E) 16:26:18 437.445
Cosmos 2504 30 May 16:34:34 16:39:33 20° 79° (ENE) 16:44:42 435.465 / 435.565
HORYU 2 30 May 16:43:53 16:48:07 47° 71° (ENE) 16:52:21 437.375
PCSat 30 May 16:45:23 16:48:06 14° 35° (NE) 16:50:50 145.827
STARS 30 May 16:45:32 16:49:10 25° 95° (E) 16:52:47 437.465
BRITE-PL 30 May 16:47:10 16:48:35 11° 56° (NE) 16:50:00 437.365/2234.400
MOZHAYETS 4 30 May 16:57:52 17:02:25 53° 100° (E) 17:06:57
NOAA 15 30 May 17:10:09 17:14:04 21° 62° (ENE) 17:18:00 137.62
AO-7 30 May 17:18:14 17:25:25 32° 264° (W) 17:32:41 29.400- 29.500
Cubesat XI-IV 30 May 17:27:13 17:31:05 21° 62° (ENE) 17:34:57 437.490
SWISSCUBE 30 May 17:28:42 17:28:56 10° 303° (WNW) 17:29:10 437.505
YUBILEINY 30 May 17:36:39 17:44:58 49° 286° (WNW) 17:53:22 435.215
Cosmos 2491 30 May 17:39:01 17:44:45 20° 283° (WNW) 17:50:28 435.465 / 435.565
LilacSat-2 30 May 17:43:14 17:45:46 17° 66° (ENE) 17:48:17 437.200
O/OREOS (USA 219) 30 May 17:46:29 17:48:34 13° 49° (NE) 17:50:39 437.305
NOAA 18 30 May 17:51:38 17:56:43 42° 68° (ENE) 18:01:49 137.9125
KKS-1 30 May 17:55:17 17:59:10 31° 292° (WNW) 18:03:03 437.445
CUTE-I 30 May 18:10:51 18:15:55 48° 70° (ENE) 18:21:02 437.470
RS-15 30 May 18:14:38 18:26:03 81° 305° (NW) 18:38:10 29.354- 29.394
BRITE-PL 30 May 18:20:23 18:26:01 66° 74° (ENE) 18:31:38 437.365/2234.400
STARS 30 May 18:21:42 18:25:32 30° 292° (WNW) 18:29:21 437.465
HORYU 2 30 May 18:22:05 18:24:56 17° 268° (W) 18:27:47 437.375
Cosmos 2504 30 May 18:24:39 18:31:54 75° 279° (W) 18:39:41 435.465 / 435.565
PCSat 30 May 18:27:13 18:32:38 63° 56° (ENE) 18:37:59 145.827
GOMX 1 30 May 18:28:15 18:33:18 40° 70° (ENE) 18:38:12 467.674
CUBESAT XI-V 30 May 18:32:23 18:37:04 61° 101° (E) 18:41:42 437.345
MOZHAYETS 4 30 May 18:36:07 18:39:10 18° 297° (WNW) 18:42:14
BEESAT 2 30 May 18:44:45 18:46:27 12° 37° (NE) 18:48:08 435.950
NOAA 15 30 May 18:48:14 18:53:26 56° 259° (W) 18:58:41 137.62
HO-68 30 May 18:57:39 19:03:10 25° 57° (ENE) 19:08:41 435.675
DOVE 4 30 May 19:00:08 19:04:52 38° 70° (ENE) 19:09:25 437.250
Cubesat XI-IV 30 May 19:05:30 19:10:42 57° 259° (W) 19:15:58 437.490
CINEMA 3 30 May 19:08:09 19:10:28 14° 63° (ENE) 19:12:44 145.822/145.860
BEESAT 3 30 May 19:11:31 19:14:59 29° 47° (NE) 19:18:27 437.485
LilacSat-2 30 May 19:16:20 19:19:49 35° 263° (W) 19:23:19 437.200
O/OREOS (USA 219) 30 May 19:24:06 19:28:36 81° 249° (WSW) 19:33:03 437.305
AUBIESAT-1 30 May 19:24:13 19:27:26 24° 64° (ENE) 19:30:28 437.475
NOAA 18 30 May 19:32:54 19:37:30 28° 265° (W) 19:42:08 137.9125
M-CUBED/EXP-1 PRIME 30 May 19:33:27 19:37:12 37° 67° (ENE) 19:40:42 437.505
STRAND 1 30 May 19:36:59 19:41:02 23° 93° (E) 19:45:03 437.568
SEEDS 30 May 19:38:43 19:41:28 17° 65° (ENE) 19:44:15 437.485
CANX-2 30 May 19:42:06 19:45:43 28° 69° (ENE) 19:49:21 2200.000
CUTE-I 30 May 19:52:07 19:56:13 22° 267° (W) 20:00:21 437.470
BRITE-PL 30 May 20:00:58 20:04:54 19° 270° (W) 20:08:49 437.365/2234.400
GOMX 1 30 May 20:06:41 20:11:24 29° 266° (W) 20:16:01 467.674
CUTE 1.7 + AOD 2 30 May 20:08:09 20:12:11 47° 73° (ENE) 20:16:16 437.475
CUBESAT XI-V 30 May 20:11:05 20:13:57 16° 298° (WNW) 20:16:49 437.345
PCSat 30 May 20:11:45 20:15:30 19° 254° (WSW) 20:19:16 145.827
AAUSAT CUBESAT 2 30 May 20:16:33 20:19:55 25° 68° (ENE) 20:23:20 437.432
COMPASS 1 30 May 20:17:12 20:20:52 31° 69° (ENE) 20:24:33 437.405
BEESAT 2 30 May 20:20:56 20:24:57 82° 57° (ENE) 20:28:56 435.950
